This demonstration page uses our WeatherBlox Daily Observations layout. Learn more.

Left ArrowRight Arrow

40.92501, -98.34201

Hourly Observations for June 28, 2015

Temp ( °F °C ) Dew Point ( °F °C ) Humidity (%) Winds ( mph kmh ) Pressure ( in mb ) Visibility ( mi km ) Precip ( " mm )
12:53 am 00:53 Clear 72 22.2 56 13.3 57 57 SSW 10 17 29.94 1014 10 16 0.00 0.00
1:53 am 01:53 Clear 70 21.1 55 12.8 59 59 SW 12 19 29.94 1014 10 16 0.00 0.00
2:53 am 02:53 Mostly Cloudy 71 21.7 55 12.8 57 57 SW 12 19 29.92 1013 10 16 0.00 0.00
3:53 am 03:53 Mostly Cloudy 71 21.7 54 12.2 55 55 WSW 14 22 29.91 1013 10 16 0.00 0.00
4:53 am 04:53 Clear 69 20.6 54 12.2 59 59 WSW 14 22 29.89 1012 10 16 0.00 0.00
5:53 am 05:53 Clear 64 17.8 56 13.3 75 75 W 9 15 29.91 1013 10 16 0.00 0.00
6:53 am 06:53 Sunny 66 18.9 57 13.9 73 73 WNW 10 17 29.92 1013 10 16 0.00 0.00
7:53 am 07:53 Sunny 72 22.2 59 15 64 64 NW 12 19 29.92 1013 10 16 0.00 0.00
8:53 am 08:53 Sunny 76 24.4 60 15.6 58 58 NW 12 19 29.93 1014 10 16 0.00 0.00
9:53 am 09:53 Sunny 80 26.7 59 15 49 49 NW 10 17 29.94 1014 10 16 0.00 0.00
10:53 am 10:53 Sunny 84 28.9 57 13.9 40 40 NNW 15 24 29.93 1014 10 16 0.00 0.00
11:53 am 11:53 Sunny 86 30 55 12.8 35 35 NNW 17 28 29.93 1014 10 16 0.00 0.00
12:53 pm 12:53 Sunny 88 31.1 57 13.9 35 35 NNW 17 28 29.93 1014 10 16 0.00 0.00
1:53 pm 13:53 Sunny 89 31.7 49 9.4 25 25 NNW 24 39 29.93 1014 10 16 0.00 0.00
2:53 pm 14:53 Sunny 89 31.7 45 7.2 22 22 NNW 21 33 29.92 1013 10 16 0.00 0.00
3:53 pm 15:53 Sunny 88 31.1 45 7.2 22 22 NNW 18 30 29.92 1013 10 16 0.00 0.00
4:53 pm 16:53 Sunny 86 30 42 5.6 21 21 NNW 17 28 29.92 1013 10 16 0.00 0.00
5:53 pm 17:53 Sunny 84 28.9 48 8.9 29 29 N 16 26 29.93 1013 10 16 0.00 0.00
6:53 pm 18:53 Sunny 81 27.2 51 10.6 35 35 NNE 12 19 29.92 1013 10 16 0.00 0.00
8:53 pm 20:53 Sunny 72 22.2 57 13.9 59 59 N 7 11 29.94 1014 10 16 0.00 0.00
9:53 pm 21:53 Clear 69 20.6 55 12.8 61 61 NNW 6 9 29.95 1014 10 16 0.00 0.00
10:53 pm 22:53 Clear 67 19.4 55 12.8 66 66 N 7 11 29.96 1015 10 16 0.00 0.00
11:53 pm 23:53 Clear 65 18.3 55 12.8 70 70 NNW 3 6 29.97 1015 10 16 0.00 0.00

Powered by AerisWeather